Location: ???????
(55.4362°N, 38.1183°E)
Time: 02:16:16
(UTC+00:00)

METEOR M2 - Pass Details

Date: 02 December 2021
Orbit: 818 x 827 km, 98.4° (Epoch: 28 January)

Event Time Altitude Azimuth Distance (km) Brightness Sun altitude
Rises 14:59:08 0° 144° (SE) 3,359 ? -15.5°
Reaches altitude 10° 15:01:32 10° 139° (SE) 2,429 ? -15.9°
Maximum altitude 15:06:43 52° 65° (ENE) 1,029 ? -16.6°
Drops below altitude 10° 15:11:56 10° 351° (N) 2,440 ? -17.3°
Sets 15:14:21 0° 347° (NNW) 3,376 ? -17.6°
